Home > Weather > Post Falls > Past weeks

Flag for USA Past Weather in Post Falls, Idaho, USA — Yesterday and Last 2 Weeks

Now
54 °F

Clear.


Feels Like: 54 °F
Forecast: 47 / 69 °F
Wind: No wind

Location: Coeur d'Alene Weather Reporting System

Current Time: May 28, 2016 at 10:55:42 PM

Latest Report: May 28, 2016 at 10:15 PM


Visibility: 10 mi

Pressure: 30.00 "Hg (27.71 "Hg at 664m altitude)

Humidity: 67%

Dew Point: 43 °F

Location of Post FallsLocation

Past Weather in Post Falls — Graph

°F

Post Falls Temperature Yesterday

Maximum temperature yesterday: 61 °F (at 3:55 PM)
Minimum temperature yesterday: 46 °F (at 4:15 AM)
Average temperature yesterday: 52 °F

High & Low Weather Summary for the Past Weeks

 TemperatureHumidityPressure
High77 °F (May 18, 1:35 PM)100% (May 22, 3:55 PM)30.18 "Hg (May 22, 3:55 PM)
Low37 °F (May 20, 5:15 AM)11% (May 19, 12:15 PM)29.61 "Hg (May 20, 3:55 PM)
Average56 °F65%29.89 "Hg
* Reported May 13 9:15 PM — May 28 9:35 PM, Post Falls, Weather by CustomWeather, © 2016

Note: Actual official high and low records may vary slightly from our data, if they occured in-between our weather recording intervals... More about our weather records

Advertising

Post Falls Weather History for the Previous 24 Hours

Scroll right to see more
 ConditionsComfort  
Time TempWeatherWind HumidityBarometerVisibility
9:35 PM
Sat, May 28
54 °FClear.5 mph58%30.00 "Hg10 mi
9:15 PM55 °FSunny.5 mph51%30.00 "Hg10 mi
8:55 PM55 °FSunny.3 mph51%29.99 "Hg10 mi
8:35 PM57 °FSunny.5 mph51%29.99 "Hg10 mi
8:15 PM57 °FSunny.N/A48%29.99 "Hg10 mi
7:55 PM59 °FSunny.3 mph48%30.00 "Hg10 mi
7:35 PM59 °FSunny.3 mph48%30.00 "Hg10 mi
7:15 PM61 °FSunny.6 mph45%30.00 "Hg10 mi
6:55 PM61 °FPassing clouds.6 mph42%30.00 "Hg10 mi
6:35 PM61 °FPartly sunny.7 mph42%30.00 "Hg10 mi
6:15 PM63 °FOvercast.9 mph39%30.00 "Hg10 mi
5:55 PM63 °FOvercast.7 mph39%30.00 "Hg10 mi
5:35 PM61 °FPartly sunny.12 mph42%30.00 "Hg10 mi
5:15 PM61 °FPartly sunny.12 mph42%30.01 "Hg10 mi
4:55 PM61 °FScattered clouds.14 mph42%30.01 "Hg10 mi
4:35 PM61 °FOvercast.10 mph42%30.01 "Hg10 mi
4:15 PM61 °FOvercast.12 mph42%30.02 "Hg10 mi
3:55 PM61 °FMostly cloudy.8 mph42%30.02 "Hg10 mi
3:35 PM61 °FPartly sunny.12 mph39%30.03 "Hg10 mi
3:15 PM61 °FMostly cloudy.12 mph39%30.03 "Hg10 mi
2:55 PM61 °FPartly sunny.7 mph39%30.03 "Hg10 mi
2:35 PM61 °FPartly sunny.6 mph39%30.04 "Hg10 mi
2:15 PM61 °FPartly sunny.8 mph39%30.04 "Hg10 mi
1:55 PM59 °FPartly sunny.9 mph45%30.04 "Hg10 mi
1:35 PM57 °FMostly cloudy.9 mph44%30.04 "Hg10 mi
1:15 PM57 °FOvercast.7 mph44%30.05 "Hg10 mi
12:55 PM55 °FCloudy.6 mph47%30.05 "Hg10 mi
12:35 PM55 °FMostly cloudy.5 mph47%30.05 "Hg10 mi
12:15 PM55 °FMostly cloudy.6 mph47%30.05 "Hg10 mi
11:55 AM55 °FMostly cloudy.6 mph47%30.05 "Hg10 mi
11:35 AM54 °FCloudy.6 mph51%30.05 "Hg10 mi
10:55 AM54 °FCloudy.No wind51%30.06 "Hg10 mi
10:35 AM54 °FPartly sunny.No wind51%30.06 "Hg10 mi
10:15 AM54 °FBroken clouds.6 mph51%30.06 "Hg10 mi
9:55 AM54 °FPartly sunny.5 mph51%30.05 "Hg10 mi
9:35 AM52 °FSunny.No wind58%30.06 "Hg10 mi
9:15 AM52 °FSunny.No wind58%30.06 "Hg10 mi
8:55 AM52 °FPassing clouds.6 mph58%30.06 "Hg10 mi
8:35 AM52 °FScattered clouds.7 mph58%30.06 "Hg10 mi
8:15 AM48 °FSunny.9 mph66%30.05 "Hg10 mi
7:55 AM48 °FSunny.9 mph62%30.05 "Hg10 mi
7:15 AM46 °FSunny.No wind62%30.04 "Hg10 mi
6:55 AM46 °FSunny.No wind62%30.05 "Hg10 mi
6:35 AM46 °FSunny.5 mph66%30.04 "Hg10 mi
6:15 AM45 °FSunny.5 mph71%30.03 "Hg10 mi
5:55 AM45 °FSunny.No wind66%30.02 "Hg10 mi
5:35 AM45 °FClear.3 mph66%30.02 "Hg10 mi
5:15 AM45 °FClear.5 mph57%30.01 "Hg10 mi
4:55 AM45 °FClear.7 mph71%30.00 "Hg10 mi
4:35 AM39 °FPassing clouds.No wind81%30.00 "Hg10 mi
4:15 AM39 °FPassing clouds.6 mph87%29.99 "Hg10 mi
3:55 AM43 °FPassing clouds.7 mph71%29.98 "Hg10 mi
3:35 AM46 °FPassing clouds.10 mph71%29.97 "Hg10 mi
3:15 AM46 °FPassing clouds.7 mph71%29.97 "Hg10 mi
2:55 AM46 °FClear.7 mph71%29.97 "Hg10 mi
2:35 AM46 °FClear.7 mph66%29.97 "Hg10 mi
2:15 AM48 °FClear.8 mph62%29.97 "Hg10 mi
1:55 AM48 °FClear.8 mph62%29.97 "Hg10 mi
1:35 AM48 °FPassing clouds.9 mph62%29.97 "Hg10 mi
1:15 AM48 °FOvercast.9 mph62%29.97 "Hg10 mi
12:55 AM48 °FPassing clouds.9 mph66%29.98 "Hg10 mi
12:35 AM48 °FClear.8 mph62%29.98 "Hg10 mi
12:15 AM50 °FClear.7 mph58%29.98 "Hg10 mi
11:55 PM
Fri, May 27
50 °FClear.10 mph58%29.97 "Hg10 mi
11:35 PM52 °FPassing clouds.9 mph54%29.97 "Hg10 mi
11:15 PM50 °FClear.8 mph62%29.97 "Hg10 mi
10:55 PM52 °FPassing clouds.8 mph58%29.97 "Hg10 mi
10:35 PM52 °FPassing clouds.8 mph58%29.97 "Hg10 mi
10:15 PM52 °FOvercast.7 mph54%29.97 "Hg10 mi
Weather by CustomWeather, © 2016

See weather overviewHow to use our weather pages